Vertical_Velocity
-6 5 15 1 5 13 11 -2 8 2 2 10 -1 0 -3 -2 0 0 1 2 -1 -4 -0 -0 1 -3 -0 -1 -1 0 2 -1 -0 -4 2 1 1 -1 -2 3 2 1 2 -2
1 8 13 -0 8 -2 -14 -4 2 10 -0 0 1 2 1 -1 2 -1 1 0 -2 0 -2 2 -1 -0 1 -0 1 -1 -1 1 2 9 10 5 2 -0 -1 -0 0 -3 -1 -1
10 30 6 -0 4 -3 2 2 3 9 3 4 -5 -0 -1 2 0 1 -0 -1 -1 0 1 0 -0 2 2 -0 0 -1 1 0 1 -4 1 -1 2 2 0 -1 1 -2 -6 -3
-15 33 -0 6 -1 6 6 1 -1 -12 -0 6 1 2 -2 1 2 1 1 4 -1 -3 -0 1 0 1 3 2 -1 1 3 1 1 0 0 1 -0 -1 -0 3 -6 1 -7 0
-11 34 2 11 4 10 11 -7 -4 1 0 3 5 1 -1 -3 3 -2 2 1 0 -0 -1 -5 -3 -3 -0 -4 5 0 1 1 0 -0 0 0 0 -0 0 -0 -2 1 2 -9
-2 11 2 8 5 12 -2 4 1 -6 0 2 6 -6 -4 -5 -2 1 1 -4 -3 1 3 1 3 -1 -0 -2 -3 -0 -0 -1 1 -0 0 0 -1 -9 -2 -1 0 -0 2 -16
9 8 6 7 1 -2 16 -5 -6 -2 2 1 -7 -0 -2 -1 -2 -5 1 -0 -3 4 -2 -3 -5 -5 -2 -2 2 -1 -1 -1 -0 -0 1 -0 1 0 1 0 -3 -0 1 -2
6 6 0 -0 -0 1 6 3 -2 -4 -0 -6 6 4 -2 2 1 -1 -2 1 1 -1 -0 -1 0 -0 -1 1 1 -0 -0 -1 -1 -0 -0 -2 -5 1 1 -0 -7 1 0 -2
3 1 -0 -2 5 2 8 5 1 -0 -13 -6 -4 -3 -4 -3 0 2 2 1 3 -1 -1 -1 -1 -1 -2 4 5 0 -1 -1 1 1 1 -1 4 2 -1 1 -0 0 1 -1
-0 3 -0 -2 2 6 9 0 4 -2 -6 1 -2 -4 -10 -0 1 -2 0 1 -1 -2 -0 -1 -1 1 1 1 -1 -0 0 -0 -1 0 -0 -6 0 -0 -1 7 9 0 -0 -0
2 5 -1 -1 -2 2 8 -3 -1 -3 -3 3 1 1 -5 -2 2 -4 6 2 2 1 0 -1 -1 -0 -0 1 -1 -2 -3 -3 -1 1 1 -2 -2 4 5 6 -0 1 0 2
2 -3 -2 0 1 7 9 5 -0 -2 -6 0 -1 0 -0 -4 -1 -6 4 2 -3 -2 -2 1 -1 0 1 0 1 2 2 -1 1 -1 -1 1 -3 1 1 0 -0 -3 -0 2
-1 -1 -2 -1 5 6 10 3 -5 -0 -7 2 1 2 2 1 1 -0 -8 -1 -2 0 -2 -3 0 -2 -1 -2 -2 1 1 -1 1 2 0 -1 -1 -2 -1 0 -1 1 2 -1
0 1 4 4 3 8 5 -2 -2 -6 -1 -7 4 2 2 1 1 2 -1 -2 -3 -3 -0 -1 -1 -2 1 -0 1 1 3 2 -1 -3 -4 -2 2 1 1 -2 -0 0 3 2
-1 1 1 5 9 2 2 1 2 -4 0 -5 3 3 1 1 2 0 3 4 2 -1 -1 -1 1 -0 -1 0 1 0 0 3 1 -1 3 3 1 4 1 -0 1 1 0 1
2 3 2 -1 -1 3 -0 0 -16 -1 1 -4 0 -0 1 3 3 3 1 1 1 -1 -1 1 1 -1 1 -1 0 4 1 1 2 1 1 4 2 4 2 1 0 1 -0 1
5 9 6 6 7 3 -0 -17 3 3 5 -1 0 1 -0 1 1 -1 -0 0 -1 -0 -1 -1 -1 1 1 -0 0 3 -1 2 2 -0 -2 6 -4 1 -0 -1 2 1 -0 0
6 7 5 7 8 7 -2 14 9 6 3 1 -3 2 1 0 -0 -1 -1 -0 1 -1 0 -1 -1 -0 -1 0 2 0 -1 0 4 0 0 1 3 2 2 0 1 -2 -2 1
8 8 5 -3 4 2 2 0 0 3 -0 -4 -2 -3 1 -0 0 -1 -2 -1 -2 -1 -1 0 1 1 1 2 0 -1 -1 0 0 1 1 0 -2 -0 0 0 5 -7 -4 -7
1 1 -0 -4 0 2 -2 -3 2 -1 -3 -3 -3 -1 1 2 -0 1 -1 0 0 0 3 -1 -1 2 1 -0 -1 -1 -0 1 3 -2 1 2 -1 -3 -2 -6 -6 -4 -4 -1
-4 -3 -4 3 1 -2 -3 -3 -4 -1 -2 -1 1 0 -1 -2 -0 -0 -0 0 0 0 4 2 1 2 1 -0 -1 0 0 0 -2 -5 -5 1 -0 1 1 2 2 2 -0 0
-1 -5 -2 -1 -2 -3 -8 0 -1 -2 2 0 -0 1 -0 -1 -1 -3 1 -1 0 0 -1 0 1 3 2 -1 2 3 -3 -0 0 3 1 1 1 0 -1 -1 0 0 -0 -1
-2 1 -2 -3 -0 -6 -1 -0 2 0 -0 1 1 0 -0 0 -1 -1 -1 0 1 -0 2 -0 2 1 1 0 1 1 -0 -0 1 1 1 1 2 2 2 1 1 -1 -1 -0
-9 -4 -3 -0 1 1 1 1 0 1 -0 0 -0 -1 -1 -0 -2 0 -2 2 1 3 2 -1 1 -1 -1 2 0 -0 2 2 2 1 -1 -3 -3 -1 -0 1 1 1 1 -0
-4 -2 1 -0 1 1 1 0 -1 2 2 -0 -1 -2 -2 0 -1 -0 1 4 0 -0 1 1 -0 -1 1 -0 1 2 1 -0 -1 1 1 0 0 0 -0 -0 -1 -2 -2 -1
-5 -4 -1 1 -2 0 -0 2 0 2 1 0 -2 -0 -1 1 -1 1 -0 1 -0 1 0 -1 -1 -1 -1 -1 -2 -1 -1 -0 -1 -0 -1 -0 1 1 -0 -1 1 -0 0 -1
-3 -1 1 0 -0 0 1 2 2 1 -2 -0 -0 -0 2 2 1 1 0 1 1 -2 1 -0 -0 -3 -2 -1 -2 -0 1 0 2 -0 -0 -1 -1 -0 2 3 0 0 -1 -0
Height
1394 1403 1413 1424 1436 1446 1456 1459 1463 1465 1473 1480 1477 1472 1470 1473 1474 1478 1477 1475 1477 1480 1483 1486 1486 1489 1490 1497 1497 1495 1499 1498 1507 1504 1507 1508 1505 1504 1506 1513 1520 1524 1522 1503
1387 1393 1404 1416 1427 1435 1444 1451 1458 1464 1468 1467 1471 1471 1468 1471 1472 1473 1474 1474 1476 1480 1481 1488 1487 1490 1497 1498 1497 1496 1499 1500 1509 1510 1510 1508 1506 1505 1506 1512 1515 1518 1524 1499
1379 1383 1399 1409 1421 1431 1444 1448 1452 1462 1467 1463 1462 1463 1465 1468 1470 1472 1473 1474 1477 1479 1483 1486 1489 1491 1497 1499 1498 1500 1500 1498 1495 1499 1494 1495 1504 1504 1505 1504 1515 1506 1504 1491
1369 1382 1395 1406 1416 1426 1436 1437 1438 1443 1452 1458 1458 1459 1461 1463 1468 1470 1471 1472 1471 1474 1483 1485 1487 1490 1496 1499 1500 1501 1499 1497 1499 1502 1504 1503 1500 1499 1502 1502 1498 1506 1490 1493
1363 1378 1391 1400 1411 1422 1430 1428 1434 1443 1446 1454 1456 1456 1459 1459 1465 1466 1467 1467 1472 1474 1476 1475 1481 1483 1488 1488 1498 1497 1500 1500 1504 1505 1507 1507 1505 1499 1497 1497 1495 1496 1490 1489
1363 1371 1385 1395 1404 1413 1422 1423 1429 1436 1448 1450 1452 1452 1455 1458 1462 1470 1468 1467 1472 1476 1479 1481 1481 1486 1487 1489 1492 1496 1498 1502 1505 1504 1512 1510 1514 1496 1492 1490 1490 1491 1492 1482
1358 1368 1379 1390 1400 1410 1421 1422 1427 1434 1443 1448 1448 1451 1455 1458 1460 1464 1470 1471 1471 1482 1482 1484 1487 1490 1493 1494 1497 1498 1501 1502 1511 1511 1521 1516 1483 1489 1489 1486 1485 1483 1484 1482
1355 1365 1376 1388 1398 1409 1416 1420 1425 1430 1444 1444 1449 1450 1454 1460 1464 1467 1470 1474 1476 1480 1483 1485 1490 1494 1499 1500 1502 1501 1501 1503 1516 1514 1505 1492 1480 1489 1491 1491 1483 1480 1480 1481
1353 1365 1377 1387 1396 1408 1415 1419 1424 1427 1434 1442 1443 1449 1453 1456 1461 1468 1474 1477 1479 1481 1484 1486 1490 1491 1486 1495 1499 1504 1505 1504 1502 1517 1508 1505 1485 1491 1492 1491 1487 1484 1484 1483
1358 1368 1377 1386 1396 1406 1413 1419 1423 1427 1432 1439 1442 1445 1450 1454 1458 1463 1473 1478 1482 1481 1484 1488 1488 1486 1491 1490 1498 1509 1507 1511 1508 1510 1507 1493 1486 1491 1492 1493 1490 1485 1485 1483
1361 1368 1376 1385 1395 1405 1412 1418 1422 1427 1431 1438 1439 1442 1446 1450 1454 1458 1471 1476 1479 1482 1484 1485 1486 1490 1489 1489 1488 1494 1494 1501 1507 1512 1510 1502 1488 1492 1492 1487 1486 1486 1485 1485
1361 1368 1376 1384 1394 1406 1413 1418 1421 1425 1430 1437 1439 1441 1443 1447 1450 1454 1463 1463 1466 1470 1475 1484 1489 1494 1500 1491 1485 1493 1493 1488 1487 1491 1484 1485 1487 1486 1487 1487 1486 1486 1485 1485
1361 1368 1375 1384 1395 1407 1413 1416 1421 1425 1431 1441 1443 1444 1445 1446 1448 1450 1456 1461 1463 1465 1466 1475 1481 1488 1487 1495 1486 1487 1488 1491 1490 1491 1481 1483 1485 1486 1485 1485 1484 1483 1482 1480
1361 1368 1376 1386 1397 1407 1412 1417 1421 1424 1430 1436 1445 1444 1445 1446 1447 1450 1452 1453 1457 1461 1466 1471 1479 1481 1485 1485 1484 1483 1485 1489 1486 1486 1482 1482 1482 1484 1484 1482 1481 1479 1478 1476
1362 1370 1379 1389 1400 1407 1414 1418 1421 1425 1430 1433 1443 1444 1446 1446 1448 1450 1451 1453 1456 1461 1467 1471 1475 1479 1483 1489 1488 1486 1487 1485 1485 1482 1484 1483 1482 1483 1482 1480 1479 1477 1476 1475
1365 1373 1382 1391 1402 1410 1415 1419 1426 1425 1425 1429 1442 1448 1448 1448 1448 1450 1452 1455 1458 1461 1464 1471 1475 1476 1479 1484 1480 1489 1489 1489 1489 1485 1484 1483 1483 1483 1480 1479 1477 1476 1475 1475
1371 1380 1388 1397 1404 1410 1413 1422 1421 1422 1423 1426 1442 1447 1449 1449 1450 1453 1455 1457 1458 1462 1467 1472 1475 1477 1478 1482 1476 1489 1488 1487 1487 1485 1482 1482 1482 1482 1481 1479 1479 1477 1476 1476
1378 1385 1393 1400 1407 1412 1421 1421 1420 1421 1423 1425 1437 1448 1450 1450 1452 1455 1456 1458 1461 1465 1470 1474 1476 1479 1481 1481 1489 1488 1487 1484 1485 1484 1482 1483 1484 1483 1481 1480 1480 1480 1483 1485
1388 1394 1400 1405 1412 1416 1417 1419 1420 1421 1425 1427 1434 1440 1447 1451 1454 1457 1459 1460 1465 1470 1471 1474 1476 1480 1481 1488 1488 1488 1487 1486 1486 1485 1484 1484 1483 1484 1485 1485 1486 1486 1489 1490
1392 1397 1400 1406 1410 1414 1418 1422 1422 1423 1425 1429 1439 1444 1449 1453 1455 1460 1462 1463 1467 1467 1473 1474 1475 1484 1488 1488 1487 1487 1486 1485 1486 1485 1486 1486 1486 1487 1489 1490 1491 1491 1491 1492
1396 1399 1406 1411 1414 1417 1419 1423 1426 1430 1434 1438 1443 1445 1447 1453 1454 1458 1463 1465 1468 1466 1470 1472 1474 1482 1487 1487 1487 1486 1486 1485 1484 1485 1488 1490 1490 1490 1491 1492 1493 1493 1493 1492
1401 1404 1410 1414 1416 1419 1424 1434 1435 1434 1438 1442 1444 1447 1449 1452 1454 1458 1464 1466 1469 1464 1471 1471 1472 1484 1485 1487 1488 1488 1489 1489 1490 1492 1492 1493 1494 1494 1494 1494 1494 1493 1493 1492
1405 1408 1412 1416 1423 1428 1426 1434 1436 1437 1440 1442 1444 1447 1450 1453 1456 1460 1462 1462 1465 1470 1470 1467 1476 1482 1485 1487 1488 1490 1491 1492 1493 1493 1493 1494 1494 1494 1494 1494 1494 1493 1493 1492
1411 1417 1424 1428 1428 1432 1433 1433 1435 1440 1441 1443 1445 1448 1451 1455 1457 1461 1460 1469 1469 1465 1464 1466 1477 1480 1484 1487 1489 1491 1493 1494 1495 1495 1495 1495 1495 1495 1495 1495 1494 1494 1493 1491
1417 1422 1430 1435 1437 1437 1437 1438 1439 1441 1443 1444 1447 1450 1453 1457 1459 1462 1465 1465 1460 1460 1459 1471 1477 1481 1484 1487 1489 1492 1493 1494 1495 1495 1495 1496 1495 1495 1495 1495 1494 1493 1492 1490
1425 1432 1436 1439 1439 1441 1441 1442 1442 1443 1444 1446 1448 1452 1454 1458 1459 1459 1458 1457 1456 1465 1469 1473 1477 1480 1484 1486 1489 1491 1493 1494 1494 1494 1494 1495 1495 1495 1494 1493 1492 1490 1488 1485
1434 1439 1439 1440 1442 1443 1443 1443 1443 1445 1446 1449 1450 1450 1455 1460 1458 1459 1459 1460 1464 1468 1471 1474 1477 1480 1484 1486 1489 1490 1491 1493 1493 1493 1493 1493 1494 1494 1493 1491 1489 1487 1484 1481